Year,Month,Day,Hour,Minute,Value (Times are PST for temperature in C)
2007,07,14,00,00,15.10
2007,07,14,00,01,15.00
2007,07,14,00,02,15.00
2007,07,14,00,03,15.00
2007,07,14,00,04,14.90
2007,07,14,00,05,14.90
2007,07,14,00,06,14.90
2007,07,14,00,07,14.80
2007,07,14,00,08,14.80
2007,07,14,00,09,14.80
2007,07,14,00,10,14.80
2007,07,14,00,11,14.70
2007,07,14,00,12,14.70
2007,07,14,00,13,14.70
2007,07,14,00,14,14.70
2007,07,14,00,15,14.70
2007,07,14,00,16,14.70
2007,07,14,00,17,14.70
2007,07,14,00,18,14.70
2007,07,14,00,19,14.70
2007,07,14,00,20,14.70
2007,07,14,00,21,14.70
2007,07,14,00,22,14.70
2007,07,14,00,23,14.70
2007,07,14,00,24,14.70
2007,07,14,00,25,14.70
2007,07,14,00,26,14.70
2007,07,14,00,27,14.70
2007,07,14,00,28,14.70
2007,07,14,00,29,14.70
2007,07,14,00,30,14.70
2007,07,14,00,31,14.70
2007,07,14,00,32,14.70
2007,07,14,00,33,14.70
2007,07,14,00,34,14.70
2007,07,14,00,35,14.70
2007,07,14,00,36,14.70
2007,07,14,00,37,14.70
2007,07,14,00,38,14.70
2007,07,14,00,39,14.70
2007,07,14,00,40,14.70
2007,07,14,00,41,14.70
2007,07,14,00,42,14.70
2007,07,14,00,43,14.70
2007,07,14,00,44,14.70
2007,07,14,00,45,14.70
2007,07,14,00,46,14.70
2007,07,14,00,47,14.80
2007,07,14,00,48,14.80
2007,07,14,00,49,14.80
2007,07,14,00,50,14.80
2007,07,14,00,51,14.80
2007,07,14,00,52,14.80
2007,07,14,00,53,14.90
2007,07,14,00,54,14.90
2007,07,14,00,55,14.90
2007,07,14,00,56,14.90
2007,07,14,00,57,14.90
2007,07,14,00,58,14.90
2007,07,14,00,59,14.90
2007,07,14,01,00,14.90
2007,07,14,01,01,14.90
2007,07,14,01,02,14.90
2007,07,14,01,03,14.90
2007,07,14,01,04,14.90
2007,07,14,01,05,14.90
2007,07,14,01,06,14.90
2007,07,14,01,07,14.90
2007,07,14,01,08,14.90
2007,07,14,01,09,14.90
2007,07,14,01,10,14.90
2007,07,14,01,11,15.00
2007,07,14,01,12,14.90
2007,07,14,01,13,14.90
2007,07,14,01,14,14.90
2007,07,14,01,15,14.90
2007,07,14,01,16,15.00
2007,07,14,01,17,15.00
2007,07,14,01,18,15.00
2007,07,14,01,19,15.00
2007,07,14,01,20,15.00
2007,07,14,01,21,15.00
2007,07,14,01,22,15.00
2007,07,14,01,23,14.90
2007,07,14,01,24,14.90
2007,07,14,01,25,14.90
2007,07,14,01,26,14.80
2007,07,14,01,27,14.80
2007,07,14,01,28,14.80
2007,07,14,01,29,14.80
2007,07,14,01,30,14.80
2007,07,14,01,31,14.80
2007,07,14,01,32,14.80
2007,07,14,01,33,14.80
2007,07,14,01,34,14.80
2007,07,14,01,35,14.80
2007,07,14,01,36,14.80
2007,07,14,01,37,14.80
2007,07,14,01,38,14.80
2007,07,14,01,39,14.80
2007,07,14,01,40,14.70
2007,07,14,01,41,14.70
2007,07,14,01,42,14.70
2007,07,14,01,43,14.70
2007,07,14,01,44,14.60
2007,07,14,01,45,14.60
2007,07,14,01,46,14.60
2007,07,14,01,47,14.60
2007,07,14,01,48,14.50
2007,07,14,01,49,14.50
2007,07,14,01,50,14.40
2007,07,14,01,51,14.40
2007,07,14,01,52,14.30
2007,07,14,01,53,14.20
2007,07,14,01,54,14.20
2007,07,14,01,55,14.20
2007,07,14,01,56,14.10
2007,07,14,01,57,14.10
2007,07,14,01,58,14.00
2007,07,14,01,59,14.00
2007,07,14,02,00,14.00
2007,07,14,02,01,13.90
2007,07,14,02,02,13.90
2007,07,14,02,03,13.80
2007,07,14,02,04,13.80
2007,07,14,02,05,13.80
2007,07,14,02,06,13.80
2007,07,14,02,07,13.80
2007,07,14,02,08,13.80
2007,07,14,02,09,13.70
2007,07,14,02,10,13.70
2007,07,14,02,11,13.70
2007,07,14,02,12,13.70
2007,07,14,02,13,13.60
2007,07,14,02,14,13.60
2007,07,14,02,15,13.60
2007,07,14,02,16,13.60
2007,07,14,02,17,13.60
2007,07,14,02,18,13.60
2007,07,14,02,19,13.50
2007,07,14,02,20,13.50
2007,07,14,02,21,13.50
2007,07,14,02,22,13.50
2007,07,14,02,23,13.50
2007,07,14,02,24,13.50
2007,07,14,02,25,13.50
2007,07,14,02,26,13.50
2007,07,14,02,27,13.40
2007,07,14,02,28,13.40
2007,07,14,02,29,13.40
2007,07,14,02,30,13.40
2007,07,14,02,31,13.40
2007,07,14,02,32,13.40
2007,07,14,02,33,13.40
2007,07,14,02,34,13.40
2007,07,14,02,35,13.40
2007,07,14,02,36,13.40
2007,07,14,02,37,13.40
2007,07,14,02,38,13.40
2007,07,14,02,39,13.50
2007,07,14,02,40,13.50
2007,07,14,02,41,13.50
2007,07,14,02,42,13.60
2007,07,14,02,43,13.60
2007,07,14,02,44,13.60
2007,07,14,02,45,13.60
2007,07,14,02,46,13.60
2007,07,14,02,47,13.60
2007,07,14,02,48,13.60
2007,07,14,02,49,13.70
2007,07,14,02,50,13.70
2007,07,14,02,51,13.70
2007,07,14,02,52,13.70
2007,07,14,02,53,13.70
2007,07,14,02,54,13.70
2007,07,14,02,55,13.70
2007,07,14,02,56,13.70
2007,07,14,02,57,13.70
2007,07,14,02,58,13.70
2007,07,14,02,59,13.70
2007,07,14,03,00,13.70
2007,07,14,03,01,13.70
2007,07,14,03,02,13.70
2007,07,14,03,03,13.70
2007,07,14,03,04,13.70
2007,07,14,03,05,13.70
2007,07,14,03,06,13.70
2007,07,14,03,07,13.70
2007,07,14,03,08,13.70
2007,07,14,03,09,13.70
2007,07,14,03,10,13.70
2007,07,14,03,11,13.70
2007,07,14,03,12,13.60
2007,07,14,03,13,13.60
2007,07,14,03,14,13.60
2007,07,14,03,15,13.60
2007,07,14,03,16,13.70
2007,07,14,03,17,13.70
2007,07,14,03,18,13.70
2007,07,14,03,19,13.70
2007,07,14,03,20,13.70
2007,07,14,03,21,13.70
2007,07,14,03,22,13.70
2007,07,14,03,23,13.70
2007,07,14,03,24,13.70
2007,07,14,03,25,13.70
2007,07,14,03,26,13.70
2007,07,14,03,27,13.70
2007,07,14,03,28,13.70
2007,07,14,03,29,13.70
2007,07,14,03,30,13.70
2007,07,14,03,31,13.70
2007,07,14,03,32,13.70
2007,07,14,03,33,13.70
2007,07,14,03,34,13.70
2007,07,14,03,35,13.70
2007,07,14,03,36,13.70
2007,07,14,03,37,13.70
2007,07,14,03,38,13.70
2007,07,14,03,39,13.70
2007,07,14,03,40,13.70
2007,07,14,03,41,13.70
2007,07,14,03,42,13.70
2007,07,14,03,43,13.70
2007,07,14,03,44,13.70
2007,07,14,03,45,13.70
2007,07,14,03,46,13.70
2007,07,14,03,47,13.70
2007,07,14,03,48,13.70
2007,07,14,03,49,13.70
2007,07,14,03,50,13.70
2007,07,14,03,51,13.70
2007,07,14,03,52,13.60
2007,07,14,03,53,13.60
2007,07,14,03,54,13.60
2007,07,14,03,55,13.60
2007,07,14,03,56,13.60
2007,07,14,03,57,13.60
2007,07,14,03,58,13.60
2007,07,14,03,59,13.60
2007,07,14,04,00,13.60
2007,07,14,04,01,13.60
2007,07,14,04,02,13.60
2007,07,14,04,03,13.60
2007,07,14,04,04,13.60
2007,07,14,04,05,13.60
2007,07,14,04,06,13.50
2007,07,14,04,07,13.50
2007,07,14,04,08,13.50
2007,07,14,04,09,13.50
2007,07,14,04,10,13.50
2007,07,14,04,11,13.50
2007,07,14,04,12,13.50
2007,07,14,04,13,13.50
2007,07,14,04,14,13.50
2007,07,14,04,15,13.50
2007,07,14,04,16,13.50
2007,07,14,04,17,13.50
2007,07,14,04,18,13.50
2007,07,14,04,19,13.50
2007,07,14,04,20,13.50
2007,07,14,04,21,13.50
2007,07,14,04,22,13.50
2007,07,14,04,23,13.50
2007,07,14,04,24,13.50
2007,07,14,04,25,13.50
2007,07,14,04,26,13.50
2007,07,14,04,27,13.60
2007,07,14,04,28,13.60
2007,07,14,04,29,13.60
2007,07,14,04,30,13.60
2007,07,14,04,31,13.60
2007,07,14,04,32,13.60
2007,07,14,04,33,13.60
2007,07,14,04,34,13.60
2007,07,14,04,35,13.60
2007,07,14,04,36,13.60
2007,07,14,04,37,13.60
2007,07,14,04,38,13.60
2007,07,14,04,39,13.60
2007,07,14,04,40,13.60
2007,07,14,04,41,13.60
2007,07,14,04,42,13.50
2007,07,14,04,43,13.50
2007,07,14,04,44,13.50
2007,07,14,04,45,13.40
2007,07,14,04,46,13.40
2007,07,14,04,47,13.30
2007,07,14,04,48,13.30
2007,07,14,04,49,13.30
2007,07,14,04,50,13.20
2007,07,14,04,51,13.20
2007,07,14,04,52,13.10
2007,07,14,04,53,13.10
2007,07,14,04,54,13.00
2007,07,14,04,55,13.00
2007,07,14,04,56,13.00
2007,07,14,04,57,12.90
2007,07,14,04,58,12.90
2007,07,14,04,59,12.90
2007,07,14,05,00,12.90
2007,07,14,05,01,12.80
2007,07,14,05,02,12.80
2007,07,14,05,03,12.80
2007,07,14,05,04,12.80
2007,07,14,05,05,12.80
2007,07,14,05,06,12.80
2007,07,14,05,07,12.80
2007,07,14,05,08,12.80
2007,07,14,05,09,12.80
2007,07,14,05,10,12.80
2007,07,14,05,11,12.80
2007,07,14,05,12,12.80
2007,07,14,05,13,12.80
2007,07,14,05,14,12.80
2007,07,14,05,15,12.80
2007,07,14,05,16,12.80
2007,07,14,05,17,12.80
2007,07,14,05,18,12.80
2007,07,14,05,19,12.80
2007,07,14,05,20,12.80
2007,07,14,05,21,12.80
2007,07,14,05,22,12.80
2007,07,14,05,23,12.80
2007,07,14,05,24,12.80
2007,07,14,05,25,12.80
2007,07,14,05,26,12.80
2007,07,14,05,27,12.80
2007,07,14,05,28,12.80
2007,07,14,05,29,12.80
2007,07,14,05,30,12.80
2007,07,14,05,31,12.80
2007,07,14,05,32,12.80
2007,07,14,05,33,12.80
2007,07,14,05,34,12.90
2007,07,14,05,35,12.90
2007,07,14,05,36,12.90
2007,07,14,05,37,12.90
2007,07,14,05,38,12.90
2007,07,14,05,39,12.90
2007,07,14,05,40,12.90
2007,07,14,05,41,12.90
2007,07,14,05,42,12.90
2007,07,14,05,43,13.00
2007,07,14,05,44,13.00
2007,07,14,05,45,13.10
2007,07,14,05,46,13.10
2007,07,14,05,47,13.10
2007,07,14,05,48,13.20
2007,07,14,05,49,13.20
2007,07,14,05,50,13.20
2007,07,14,05,51,13.20
2007,07,14,05,52,13.20
2007,07,14,05,53,13.10
2007,07,14,05,54,13.10
2007,07,14,05,55,13.10
2007,07,14,05,56,13.10
2007,07,14,05,57,13.10
2007,07,14,05,58,13.10
2007,07,14,05,59,13.00
2007,07,14,06,00,13.00
2007,07,14,06,01,13.00
2007,07,14,06,02,12.90
2007,07,14,06,03,12.90
2007,07,14,06,04,12.80
2007,07,14,06,05,12.80
2007,07,14,06,06,12.80
2007,07,14,06,07,12.80
2007,07,14,06,08,12.80
2007,07,14,06,09,12.80
2007,07,14,06,10,12.80
2007,07,14,06,11,12.80
2007,07,14,06,12,12.80
2007,07,14,06,13,12.80
2007,07,14,06,14,12.80
2007,07,14,06,15,12.80
2007,07,14,06,16,12.80
2007,07,14,06,17,12.80
2007,07,14,06,18,12.80
2007,07,14,06,19,12.80
2007,07,14,06,20,12.80
2007,07,14,06,21,12.80
2007,07,14,06,22,12.80
2007,07,14,06,23,12.80
2007,07,14,06,24,12.80
2007,07,14,06,25,12.80
2007,07,14,06,26,12.80
2007,07,14,06,27,12.80
2007,07,14,06,28,12.80
2007,07,14,06,29,12.80
2007,07,14,06,30,12.80
2007,07,14,06,31,12.80
2007,07,14,06,32,12.80
2007,07,14,06,33,12.80
2007,07,14,06,34,12.80
2007,07,14,06,35,12.80
2007,07,14,06,36,12.80
2007,07,14,06,37,12.80
2007,07,14,06,38,12.80
2007,07,14,06,39,12.80
2007,07,14,06,40,12.80
2007,07,14,06,41,12.90
2007,07,14,06,42,12.90
2007,07,14,06,43,12.90
2007,07,14,06,44,12.90
2007,07,14,06,45,12.90
2007,07,14,06,46,13.00
2007,07,14,06,47,13.00
2007,07,14,06,48,13.00
2007,07,14,06,49,13.00
2007,07,14,06,50,13.00
2007,07,14,06,51,13.00
2007,07,14,06,52,13.10
2007,07,14,06,53,13.10
2007,07,14,06,54,13.10
2007,07,14,06,55,13.10
2007,07,14,06,56,13.10
2007,07,14,06,57,13.10
2007,07,14,06,58,13.10
2007,07,14,06,59,13.20
2007,07,14,07,00,13.20
2007,07,14,07,01,13.20
2007,07,14,07,02,13.20
2007,07,14,07,03,13.20
2007,07,14,07,04,13.30
2007,07,14,07,05,13.30
2007,07,14,07,06,13.30
2007,07,14,07,07,13.30
2007,07,14,07,08,13.30
2007,07,14,07,09,13.40
2007,07,14,07,10,13.50
2007,07,14,07,11,13.50
2007,07,14,07,12,13.60
2007,07,14,07,13,13.60
2007,07,14,07,14,13.70
2007,07,14,07,15,13.70
2007,07,14,07,16,13.80
2007,07,14,07,17,13.80
2007,07,14,07,18,13.90
2007,07,14,07,19,13.90
2007,07,14,07,20,14.00
2007,07,14,07,21,14.10
2007,07,14,07,22,14.20
2007,07,14,07,23,14.20
2007,07,14,07,24,14.20
2007,07,14,07,25,14.20
2007,07,14,07,26,14.20
2007,07,14,07,27,14.20
2007,07,14,07,28,14.10
2007,07,14,07,29,14.10
2007,07,14,07,30,14.10
2007,07,14,07,31,14.00
2007,07,14,07,32,13.90
2007,07,14,07,33,13.80
2007,07,14,07,34,13.70
2007,07,14,07,35,13.70
2007,07,14,07,36,13.80
2007,07,14,07,37,13.90
2007,07,14,07,38,13.90
2007,07,14,07,39,14.00
2007,07,14,07,40,14.10
2007,07,14,07,41,14.10
2007,07,14,07,42,14.10
2007,07,14,07,43,14.10
2007,07,14,07,44,14.00
2007,07,14,07,45,13.90
2007,07,14,07,46,13.90
2007,07,14,07,47,13.80
2007,07,14,07,48,13.80
2007,07,14,07,49,13.70
2007,07,14,07,50,13.70
2007,07,14,07,51,13.70
2007,07,14,07,52,13.70
2007,07,14,07,53,13.70
2007,07,14,07,54,13.70
2007,07,14,07,55,13.70
2007,07,14,07,56,13.70
2007,07,14,07,57,13.70
2007,07,14,07,58,13.70
2007,07,14,07,59,13.70
2007,07,14,08,00,13.70
2007,07,14,08,01,13.70
2007,07,14,08,02,13.70
2007,07,14,08,03,13.70
2007,07,14,08,04,13.80
2007,07,14,08,05,13.90
2007,07,14,08,06,14.00
2007,07,14,08,07,14.00
2007,07,14,08,08,14.00
2007,07,14,08,09,14.00
2007,07,14,08,10,14.00
2007,07,14,08,11,14.00
2007,07,14,08,12,14.00
2007,07,14,08,13,14.00
2007,07,14,08,14,14.10
2007,07,14,08,15,14.20
2007,07,14,08,16,14.20
2007,07,14,08,17,14.40
2007,07,14,08,18,14.40
2007,07,14,08,19,14.40
2007,07,14,08,20,14.50
2007,07,14,08,21,14.50
2007,07,14,08,22,14.50
2007,07,14,08,23,14.60
2007,07,14,08,24,14.50
2007,07,14,08,25,14.50
2007,07,14,08,26,14.40
2007,07,14,08,27,14.30
2007,07,14,08,28,14.30
2007,07,14,08,29,14.30
2007,07,14,08,30,14.40
2007,07,14,08,31,14.40
2007,07,14,08,32,14.50
2007,07,14,08,33,14.50
2007,07,14,08,34,14.50
2007,07,14,08,35,14.50
2007,07,14,08,36,14.40
2007,07,14,08,37,14.40
2007,07,14,08,38,14.50
2007,07,14,08,39,14.50
2007,07,14,08,40,14.60
2007,07,14,08,41,14.60
2007,07,14,08,42,14.70
2007,07,14,08,43,14.80
2007,07,14,08,44,14.80
2007,07,14,08,45,14.80
2007,07,14,08,46,14.80
2007,07,14,08,47,14.90
2007,07,14,08,48,14.90
2007,07,14,08,49,14.80
2007,07,14,08,50,14.90
2007,07,14,08,51,14.90
2007,07,14,08,52,14.90
2007,07,14,08,53,14.90
2007,07,14,08,54,14.80
2007,07,14,08,55,14.70
2007,07,14,08,56,14.60
2007,07,14,08,57,14.50
2007,07,14,08,58,14.50
2007,07,14,08,59,14.60
2007,07,14,09,00,14.60
2007,07,14,09,01,14.70
2007,07,14,09,02,14.80
2007,07,14,09,03,14.90
2007,07,14,09,04,15.00
2007,07,14,09,05,15.10
2007,07,14,09,06,15.10
2007,07,14,09,07,15.10
2007,07,14,09,08,15.20
2007,07,14,09,09,15.20
2007,07,14,09,10,15.20
2007,07,14,09,11,15.30
2007,07,14,09,12,15.30
2007,07,14,09,13,15.30
2007,07,14,09,14,15.40
2007,07,14,09,15,15.50
2007,07,14,09,16,15.60
2007,07,14,09,17,15.60
2007,07,14,09,18,15.70
2007,07,14,09,19,15.80
2007,07,14,09,20,15.80
2007,07,14,09,21,15.90
2007,07,14,09,22,16.10
2007,07,14,09,23,16.10
2007,07,14,09,24,16.20
2007,07,14,09,25,16.20
2007,07,14,09,26,16.20
2007,07,14,09,27,16.20
2007,07,14,09,28,16.10
2007,07,14,09,29,16.10
2007,07,14,09,30,16.00
2007,07,14,09,31,15.90
2007,07,14,09,32,15.80
2007,07,14,09,33,15.90
2007,07,14,09,34,15.90
2007,07,14,09,35,15.80
2007,07,14,09,36,15.80
2007,07,14,09,37,15.80
2007,07,14,09,38,15.90
2007,07,14,09,39,16.00
2007,07,14,09,40,16.00
2007,07,14,09,41,16.10
2007,07,14,09,42,16.30
2007,07,14,09,43,16.30
2007,07,14,09,44,16.20
2007,07,14,09,45,16.20
2007,07,14,09,46,16.10
2007,07,14,09,47,15.90
2007,07,14,09,48,15.90
2007,07,14,09,49,15.90
2007,07,14,09,50,15.80
2007,07,14,09,51,15.80
2007,07,14,09,52,15.70
2007,07,14,09,53,15.70
2007,07,14,09,54,15.70
2007,07,14,09,55,15.70
2007,07,14,09,56,15.70
2007,07,14,09,57,15.70
2007,07,14,09,58,15.60
2007,07,14,09,59,15.50
2007,07,14,10,00,15.30
2007,07,14,10,01,15.30
2007,07,14,10,02,15.50
2007,07,14,10,03,15.60
2007,07,14,10,04,15.80
2007,07,14,10,05,15.80
2007,07,14,10,06,15.80
2007,07,14,10,07,15.80
2007,07,14,10,08,15.70
2007,07,14,10,09,15.80
2007,07,14,10,10,15.80
2007,07,14,10,11,15.80
2007,07,14,10,12,15.80
2007,07,14,10,13,15.80
2007,07,14,10,14,15.80
2007,07,14,10,15,15.90
2007,07,14,10,16,16.00
2007,07,14,10,17,16.10
2007,07,14,10,18,16.20
2007,07,14,10,19,16.20
2007,07,14,10,20,16.20
2007,07,14,10,21,16.30
2007,07,14,10,22,16.30
2007,07,14,10,23,16.30
2007,07,14,10,24,16.30
2007,07,14,10,25,16.30
2007,07,14,10,26,16.30
2007,07,14,10,27,16.30
2007,07,14,10,28,16.30
2007,07,14,10,29,16.30
2007,07,14,10,30,16.40
2007,07,14,10,31,16.40
2007,07,14,10,32,16.50
2007,07,14,10,33,16.60
2007,07,14,10,34,16.60
2007,07,14,10,35,16.60
2007,07,14,10,36,16.60
2007,07,14,10,37,16.40
2007,07,14,10,38,16.40
2007,07,14,10,39,16.40
2007,07,14,10,40,16.40
2007,07,14,10,41,16.40
2007,07,14,10,42,16.40
2007,07,14,10,43,16.40
2007,07,14,10,44,16.40
2007,07,14,10,45,16.40
2007,07,14,10,46,16.40
2007,07,14,10,47,16.40
2007,07,14,10,48,16.50
2007,07,14,10,49,16.60
2007,07,14,10,50,16.60
2007,07,14,10,51,16.60
2007,07,14,10,52,16.60
2007,07,14,10,53,16.60
2007,07,14,10,54,16.60
2007,07,14,10,55,16.70
2007,07,14,10,56,16.80
2007,07,14,10,57,16.90
2007,07,14,10,58,17.00
2007,07,14,10,59,17.00
2007,07,14,11,00,17.00
2007,07,14,11,01,16.90
2007,07,14,11,02,16.90
2007,07,14,11,03,16.90
2007,07,14,11,04,16.90
2007,07,14,11,05,16.90
2007,07,14,11,06,17.00
2007,07,14,11,07,17.10
2007,07,14,11,08,17.20
2007,07,14,11,09,17.30
2007,07,14,11,10,17.40
2007,07,14,11,11,17.50
2007,07,14,11,12,17.50
2007,07,14,11,13,17.40
2007,07,14,11,14,17.40
2007,07,14,11,15,17.30
2007,07,14,11,16,17.30
2007,07,14,11,17,17.20
2007,07,14,11,18,17.20
2007,07,14,11,19,17.20
2007,07,14,11,20,17.20
2007,07,14,11,21,17.20
2007,07,14,11,22,17.20
2007,07,14,11,23,17.30
2007,07,14,11,24,17.30
2007,07,14,11,25,17.30
2007,07,14,11,26,17.40
2007,07,14,11,27,17.40
2007,07,14,11,28,17.40
2007,07,14,11,29,17.40
2007,07,14,11,30,17.50
2007,07,14,11,31,17.70
2007,07,14,11,32,17.80
2007,07,14,11,33,17.90
2007,07,14,11,34,17.80
2007,07,14,11,35,17.80
2007,07,14,11,36,17.80
2007,07,14,11,37,17.80
2007,07,14,11,38,17.80
2007,07,14,11,39,17.70
2007,07,14,11,40,17.60
2007,07,14,11,41,17.50
2007,07,14,11,42,17.40
2007,07,14,11,43,17.40
2007,07,14,11,44,17.40
2007,07,14,11,45,17.50
2007,07,14,11,46,17.50
2007,07,14,11,47,17.50
2007,07,14,11,48,17.50
2007,07,14,11,49,17.40
2007,07,14,11,50,17.30
2007,07,14,11,51,17.30
2007,07,14,11,52,17.20
2007,07,14,11,53,17.20
2007,07,14,11,54,17.30
2007,07,14,11,55,17.40
2007,07,14,11,56,17.60
2007,07,14,11,57,17.70
2007,07,14,11,58,17.70
2007,07,14,11,59,17.70
2007,07,14,12,00,17.80
2007,07,14,12,01,17.90
2007,07,14,12,02,18.00
2007,07,14,12,03,18.20
2007,07,14,12,04,18.20
2007,07,14,12,05,18.20
2007,07,14,12,06,18.20
2007,07,14,12,07,18.20
2007,07,14,12,08,18.30
2007,07,14,12,09,18.40
2007,07,14,12,10,18.50
2007,07,14,12,11,18.40
2007,07,14,12,12,18.50
2007,07,14,12,13,18.40
2007,07,14,12,14,18.40
2007,07,14,12,15,18.20
2007,07,14,12,16,18.20
2007,07,14,12,17,18.40
2007,07,14,12,18,18.50
2007,07,14,12,19,18.40
2007,07,14,12,20,18.30
2007,07,14,12,21,18.40
2007,07,14,12,22,18.60
2007,07,14,12,23,18.70
2007,07,14,12,24,18.70
2007,07,14,12,25,18.70
2007,07,14,12,26,18.60
2007,07,14,12,27,18.60
2007,07,14,12,28,18.60
2007,07,14,12,29,18.60
2007,07,14,12,30,18.50
2007,07,14,12,31,18.60
2007,07,14,12,32,18.70
2007,07,14,12,33,18.70
2007,07,14,12,34,18.70
2007,07,14,12,35,18.80
2007,07,14,12,36,18.70
2007,07,14,12,37,18.70
2007,07,14,12,38,18.80
2007,07,14,12,39,18.90
2007,07,14,12,40,18.90
2007,07,14,12,41,18.90
2007,07,14,12,42,18.90
2007,07,14,12,43,18.90
2007,07,14,12,44,19.10
2007,07,14,12,45,19.10
2007,07,14,12,46,19.20
2007,07,14,12,47,19.20
2007,07,14,12,48,19.20
2007,07,14,12,49,19.20
2007,07,14,12,50,19.20
2007,07,14,12,51,19.10
2007,07,14,12,52,19.20
2007,07,14,12,53,19.30
2007,07,14,12,54,19.40
2007,07,14,12,55,19.40
2007,07,14,12,56,19.30
2007,07,14,12,57,19.40
2007,07,14,12,58,19.50
2007,07,14,12,59,19.50
2007,07,14,13,00,19.50
2007,07,14,13,01,19.50
2007,07,14,13,02,19.50
2007,07,14,13,03,19.60
2007,07,14,13,04,19.70
2007,07,14,13,05,19.80
2007,07,14,13,06,19.80
2007,07,14,13,07,19.90
2007,07,14,13,08,19.90
2007,07,14,13,09,20.00
2007,07,14,13,10,20.10
2007,07,14,13,11,20.20
2007,07,14,13,12,20.20
2007,07,14,13,13,20.20
2007,07,14,13,14,20.20
2007,07,14,13,15,20.20
2007,07,14,13,16,20.30
2007,07,14,13,17,20.40
2007,07,14,13,18,20.50
2007,07,14,13,19,20.60
2007,07,14,13,20,20.60
2007,07,14,13,21,20.70
2007,07,14,13,22,20.60
2007,07,14,13,23,20.70
2007,07,14,13,24,20.80
2007,07,14,13,25,20.70
2007,07,14,13,26,20.70
2007,07,14,13,27,20.70
2007,07,14,13,28,20.60
2007,07,14,13,29,20.50
2007,07,14,13,30,20.40
2007,07,14,13,31,20.30
2007,07,14,13,32,20.20
2007,07,14,13,33,20.20
2007,07,14,13,34,20.30
2007,07,14,13,35,20.50
2007,07,14,13,36,20.70
2007,07,14,13,37,20.80
2007,07,14,13,38,20.80
2007,07,14,13,39,20.80
2007,07,14,13,40,20.80
2007,07,14,13,41,20.70
2007,07,14,13,42,20.80
2007,07,14,13,43,20.90
2007,07,14,13,44,20.90
2007,07,14,13,45,20.80
2007,07,14,13,46,20.80
2007,07,14,13,47,20.80
2007,07,14,13,48,20.80
2007,07,14,13,49,20.80
2007,07,14,13,50,20.90
2007,07,14,13,51,20.90
2007,07,14,13,52,20.90
2007,07,14,13,53,20.90
2007,07,14,13,54,20.90
2007,07,14,13,55,21.10
2007,07,14,13,56,21.30
2007,07,14,13,57,21.50
2007,07,14,13,58,21.70
2007,07,14,13,59,22.00
2007,07,14,14,00,22.30
2007,07,14,14,01,22.50
2007,07,14,14,02,22.60
2007,07,14,14,03,22.70
2007,07,14,14,04,22.60
2007,07,14,14,05,22.40
2007,07,14,14,06,22.30
2007,07,14,14,07,22.30
2007,07,14,14,08,22.30
2007,07,14,14,09,22.30
2007,07,14,14,10,22.30
2007,07,14,14,11,22.00
2007,07,14,14,12,21.90
2007,07,14,14,13,21.70
2007,07,14,14,14,21.60
2007,07,14,14,15,21.60
2007,07,14,14,16,21.70
2007,07,14,14,17,21.60
2007,07,14,14,18,21.50
2007,07,14,14,19,21.40
2007,07,14,14,20,21.30
2007,07,14,14,21,21.30
2007,07,14,14,22,21.30
2007,07,14,14,23,21.30
2007,07,14,14,24,21.30
2007,07,14,14,25,21.30
2007,07,14,14,26,21.40
2007,07,14,14,27,21.40
2007,07,14,14,28,21.50
2007,07,14,14,29,21.60
2007,07,14,14,30,21.80
2007,07,14,14,31,22.00
2007,07,14,14,32,22.20
2007,07,14,14,33,22.30
2007,07,14,14,34,22.50
2007,07,14,14,35,22.70
2007,07,14,14,36,22.80
2007,07,14,14,37,22.90
2007,07,14,14,38,22.90
2007,07,14,14,39,23.10
2007,07,14,14,40,23.20
2007,07,14,14,41,23.20
2007,07,14,14,42,23.30
2007,07,14,14,43,23.30
2007,07,14,14,44,23.30
2007,07,14,14,45,23.30
2007,07,14,14,46,23.30
2007,07,14,14,47,23.30
2007,07,14,14,48,23.30
2007,07,14,14,49,23.30
2007,07,14,14,50,23.30
2007,07,14,14,51,23.30
2007,07,14,14,52,23.30
2007,07,14,14,53,23.30
2007,07,14,14,54,23.30
2007,07,14,14,55,23.30
2007,07,14,14,56,23.30
2007,07,14,14,57,23.30
2007,07,14,14,58,23.30
2007,07,14,14,59,23.30
2007,07,14,15,00,23.30
2007,07,14,15,01,23.30
2007,07,14,15,02,23.30
2007,07,14,15,03,23.30
2007,07,14,15,04,23.30
2007,07,14,15,05,23.30
2007,07,14,15,06,23.30
2007,07,14,15,07,23.30
2007,07,14,15,08,23.30
2007,07,14,15,09,23.30
2007,07,14,15,10,23.30
2007,07,14,15,11,23.30
2007,07,14,15,12,23.40
2007,07,14,15,13,23.40
2007,07,14,15,14,23.50
2007,07,14,15,15,23.60
2007,07,14,15,16,23.70
2007,07,14,15,17,23.70
2007,07,14,15,18,23.70
2007,07,14,15,19,23.60
2007,07,14,15,20,23.50
2007,07,14,15,21,23.40
2007,07,14,15,22,23.30
2007,07,14,15,23,23.30
2007,07,14,15,24,23.30
2007,07,14,15,25,23.30
2007,07,14,15,26,23.30
2007,07,14,15,27,23.40
2007,07,14,15,28,23.40
2007,07,14,15,29,23.60
2007,07,14,15,30,23.60
2007,07,14,15,31,23.70
2007,07,14,15,32,23.70
2007,07,14,15,33,23.70
2007,07,14,15,34,23.70
2007,07,14,15,35,23.70
2007,07,14,15,36,23.80
2007,07,14,15,37,23.90
2007,07,14,15,38,24.00
2007,07,14,15,39,24.10
2007,07,14,15,40,24.20
2007,07,14,15,41,24.20
2007,07,14,15,42,24.30
2007,07,14,15,43,24.40
2007,07,14,15,44,24.50
2007,07,14,15,45,24.60
2007,07,14,15,46,24.50
2007,07,14,15,47,24.50
2007,07,14,15,48,24.50
2007,07,14,15,49,24.40
2007,07,14,15,50,24.40
2007,07,14,15,51,24.30
2007,07,14,15,52,24.20
2007,07,14,15,53,24.10
2007,07,14,15,54,24.10
2007,07,14,15,55,24.20
2007,07,14,15,56,24.20
2007,07,14,15,57,24.20
2007,07,14,15,58,24.20
2007,07,14,15,59,24.20
2007,07,14,16,00,24.00
2007,07,14,16,01,23.90
2007,07,14,16,02,23.80
2007,07,14,16,03,23.80
2007,07,14,16,04,23.90
2007,07,14,16,05,23.90
2007,07,14,16,06,23.70
2007,07,14,16,07,23.80
2007,07,14,16,08,23.80
2007,07,14,16,09,23.80
2007,07,14,16,10,23.80
2007,07,14,16,11,23.80
2007,07,14,16,12,23.80
2007,07,14,16,13,23.60
2007,07,14,16,14,23.50
2007,07,14,16,15,23.40
2007,07,14,16,16,23.40
2007,07,14,16,17,23.30
2007,07,14,16,18,23.30
2007,07,14,16,19,23.30
2007,07,14,16,20,23.10
2007,07,14,16,21,22.90
2007,07,14,16,22,22.80
2007,07,14,16,23,22.70
2007,07,14,16,24,22.80
2007,07,14,16,25,22.80
2007,07,14,16,26,22.80
2007,07,14,16,27,22.70
2007,07,14,16,28,22.50
2007,07,14,16,29,22.30
2007,07,14,16,30,22.30
2007,07,14,16,31,22.30
2007,07,14,16,32,22.20
2007,07,14,16,33,22.20
2007,07,14,16,34,22.20
2007,07,14,16,35,22.30
2007,07,14,16,36,22.40
2007,07,14,16,37,22.60
2007,07,14,16,38,22.70
2007,07,14,16,39,23.00
2007,07,14,16,40,23.20
2007,07,14,16,41,23.50
2007,07,14,16,42,23.70
2007,07,14,16,43,23.90
2007,07,14,16,44,24.10
2007,07,14,16,45,24.40
2007,07,14,16,46,24.60
2007,07,14,16,47,24.70
2007,07,14,16,48,24.70
2007,07,14,16,49,24.80
2007,07,14,16,50,24.80
2007,07,14,16,51,24.90
2007,07,14,16,52,24.90
2007,07,14,16,53,24.90
2007,07,14,16,54,25.00
2007,07,14,16,55,25.00
2007,07,14,16,56,25.10
2007,07,14,16,57,25.20
2007,07,14,16,58,25.20
2007,07,14,16,59,25.20
2007,07,14,17,00,25.20
2007,07,14,17,01,25.10
2007,07,14,17,02,25.00
2007,07,14,17,03,25.00
2007,07,14,17,04,24.90
2007,07,14,17,05,24.90
2007,07,14,17,06,24.90
2007,07,14,17,07,25.00
2007,07,14,17,08,25.00
2007,07,14,17,09,25.00
2007,07,14,17,10,25.00
2007,07,14,17,11,25.10
2007,07,14,17,12,25.20
2007,07,14,17,13,25.20
2007,07,14,17,14,25.30
2007,07,14,17,15,25.30
2007,07,14,17,16,25.30
2007,07,14,17,17,25.30
2007,07,14,17,18,25.20
2007,07,14,17,19,25.10